Capri, Italy

8:56 PM CEST on October 19, 2017 (GMT +0200)
Capri

Weather History for LIQC - April, 2013

Change the Weather History Date:

Friday, April 5, 2013

  Actual Average (LIRN) Record (LIRN)
Temperature  
Mean Temperature 63 °F -  
Max Temperature 70 °F 62 °F 76 °F (2016)
Min Temperature 56 °F 46 °F 42 °F (1999)
Degree Days  
Heating Degree Days 2    
Growing Degree Days 13 (Base 50)    
Moisture  
Dew Point 58 °F    
Average Humidity 88    
Maximum Humidity 100    
Minimum Humidity 59    
Precipitation  
Precipitation 0.00 in - - ()
Sea Level Pressure  
Sea Level Pressure 29.67 in    
Wind  
Wind Speed 4 mph ()    
Max Wind Speed 7 mph    
Max Gust Speed -    
Visibility 9.4 miles    
Events      
Averages and records for this station are not official NWS values.
T = Trace of Precipitation, MM = Missing Value Source: Averaged Metar Reports

Daily Weather History Graph

Daily Weather History Graph

Search for Another Location

Airport or City:

Trip Planner

Search our weather history database for the weather conditions in past years. The results will help you decide how hot, cold, wet, or windy it might be!

Date:

Astronomy

Apr. 05, 2013 Rise Set
Actual Time 6:40 AM CEST 7:31 PM CEST
Civil Twilight 6:12 AM CEST 7:59 PM CEST
Nautical Twilight 5:39 AM CEST 8:32 PM CEST
Astronomical Twilight 5:05 AM CEST 9:06 PM CEST
Moon 3:37 AM CEST (4/5) 2:36 PM CEST (4/5)
Length of Visible Light 13h 47m
Length of Day
12h 51m
Waning Crescent, 26% of the Moon is Illuminated
Apr 5
Waning Crescent
Apr 10
New
Apr 18
First Quarter
Apr 25
Full
May 2
Last Quarter

Hourly Weather History & Observations

Time (CEST) Temp. Dew Point Humidity Pressure Visibility Wind Dir Wind Speed Gust Speed Precip Events Conditions
12:55 AM 64.4 °F 50.0 °F 59% 29.53 in - North - - N/A   Partly Cloudy
1:55 AM 62.6 °F 53.6 °F 72% 29.53 in - North - - N/A   Partly Cloudy
5:00 AM 57 °F 56 °F 96% 29.53 in 12 mi 5.8 mph - -   Partly Cloudy
6:55 AM 57.2 °F 55.4 °F 94% 29.53 in - North - - N/A   Scattered Clouds
7:55 AM 57.2 °F 55.4 °F 94% 29.56 in - North - - N/A   Scattered Clouds
8:00 AM 56 °F 54 °F 93% 29.56 in 12 mi 5.8 mph - -   Partly Cloudy
8:55 AM 57.2 °F 55.4 °F 94% 29.59 in - North - - N/A   Partly Cloudy
9:55 AM 57.2 °F 53.6 °F 88% 29.59 in - North - - N/A   Scattered Clouds
10:55 AM 59.0 °F 55.4 °F 88% 29.65 in - North - - N/A   Clear
11:00 AM 59 °F 56 °F 87% 29.65 in 12 mi North 5.8 mph - -  
11:55 AM 60.8 °F 57.2 °F 88% 29.65 in - North - - N/A   Clear
12:55 PM 62.6 °F 59.0 °F 88% 29.68 in - North - - N/A   Clear
1:55 PM 64.4 °F 59.0 °F 83% 29.68 in - North - - N/A   Clear
2:00 PM 64 °F 60 °F 82% 29.68 in 12 mi North 6.9 mph - -  
2:55 PM 68.0 °F 62.6 °F 83% 29.71 in - North - - N/A   Clear
3:55 PM 68.0 °F 62.6 °F 83% 29.71 in - North - - N/A   Clear
4:55 PM 68.0 °F 62.6 °F 83% 29.71 in - North - - N/A   Clear
5:00 PM 68 °F 62 °F 76% 29.71 in 6 mi North 5.8 mph - -  
5:55 PM 68.0 °F 62.6 °F 83% 29.71 in - North - - N/A   Clear
6:55 PM 64.4 °F 60.8 °F 88% 29.74 in - North - - N/A   Scattered Clouds
7:55 PM 59.0 °F 59.0 °F 100% 29.74 in - North - - N/A   Clear
8:00 PM 59 °F 59 °F 98% 29.75 in 6 mi 2.3 mph - -  
8:55 PM 59.0 °F 57.2 °F 94% 29.77 in - North - - N/A   Clear
9:55 PM 57.2 °F 57.2 °F 100% 29.77 in - North - - N/A   Clear
10:55 PM 57.2 °F 55.4 °F 94% 29.80 in - North - - N/A   Clear
11:00 PM 57 °F 56 °F 94% 29.80 in 6 mi Calm Calm - -